Wind_Speed
56 57 58 58 58 56 55 53 52 52 53 53 52 52 51 50 49 47 46 45 44 44 45 46 47 49 49 48 46 43 41 39 39 38 39 40 41 42 43 44 45 47 48 48 48 48 48 48 49 50 52 53 54 55 55 56 57 58 58 59 59 58 57 57 56 56 56 56 56 55 55 54 53 52 52 51 50 47 44 41 40 40 41 40 39 38
54 55 56 57 57 57 57 56 55 55 55 55 54 54 55 54 54 53 52 51 50 49 49 50 51 52 52 53 52 50 48 46 44 42 41 41 41 42 43 44 45 46 48 49 49 49 49 49 49 50 52 53 54 56 57 58 59 59 60 60 60 60 59 58 57 57 57 58 58 57 57 56 55 55 54 53 52 49 45 42 41 42 43 42 41 40
53 53 54 55 55 56 57 58 58 58 59 58 57 56 56 57 57 57 57 57 55 54 54 54 55 56 56 57 57 56 54 52 50 48 46 45 44 43 43 43 44 46 47 48 49 49 49 49 50 50 51 53 54 56 58 59 60 61 61 62 62 61 61 60 59 58 59 59 59 59 59 59 58 58 58 58 55 51 46 43 43 44 45 44 43 42
52 53 53 54 55 56 58 59 60 61 61 61 60 60 59 59 60 60 60 60 59 58 57 57 58 59 60 61 60 59 58 56 55 53 51 50 48 47 46 44 44 45 46 48 49 49 50 50 50 50 51 52 53 55 57 59 60 62 62 63 63 63 62 61 60 60 60 60 60 61 61 61 62 62 63 62 59 54 47 45 44 45 46 46 45 44
52 53 54 54 55 56 58 60 61 62 63 63 63 63 63 63 63 62 62 61 61 60 60 60 61 62 63 63 62 61 59 58 57 56 55 54 53 52 51 48 46 46 46 48 49 50 51 51 51 51 50 49 50 52 55 58 60 61 62 63 64 64 64 63 62 61 61 61 62 62 63 64 65 66 66 65 61 55 48 46 46 47 47 48 47 46
52 53 54 55 56 57 58 59 61 62 63 63 64 64 65 65 65 64 63 63 62 62 62 62 63 63 64 64 63 62 60 59 58 57 57 57 56 56 55 54 51 49 48 48 50 51 53 54 54 54 53 50 48 47 50 53 57 59 61 62 63 64 64 63 62 62 62 63 63 64 65 66 67 68 69 67 61 54 49 47 47 48 49 49 49 48
52 53 53 54 55 56 57 58 59 60 61 62 63 63 64 64 64 64 64 64 63 64 64 64 64 64 64 63 63 62 61 60 59 58 57 57 57 57 57 57 56 54 52 51 51 53 54 56 57 57 56 53 50 47 46 48 52 56 58 60 62 63 64 64 63 63 63 64 65 66 67 68 69 70 69 66 60 53 49 48 48 49 50 51 51 50
53 53 53 53 54 54 55 56 57 58 59 60 61 62 62 63 63 63 63 63 64 64 64 64 63 63 63 62 62 61 61 60 59 58 57 57 57 57 58 58 58 58 57 55 54 54 56 57 59 59 59 57 54 50 46 46 48 51 54 58 60 63 64 64 65 65 65 66 67 68 69 69 70 69 68 64 58 52 50 49 49 50 52 53 54 53
55 55 55 55 55 55 55 56 56 56 57 58 59 60 61 61 62 62 62 62 62 63 63 63 63 63 62 62 61 61 60 60 59 58 58 57 57 57 58 58 59 59 59 58 57 56 57 58 59 60 60 59 58 55 50 47 46 47 50 53 57 60 63 65 66 67 67 68 68 69 70 70 69 68 66 62 56 52 50 49 50 51 54 55 56 55
56 56 57 57 57 58 58 58 58 58 58 58 59 60 60 61 61 62 62 62 62 62 62 63 63 63 63 62 61 61 60 60 59 59 58 58 57 57 57 58 58 59 59 59 59 58 58 58 59 60 60 60 60 58 55 51 48 46 46 48 51 56 60 64 66 67 68 69 69 70 70 69 68 67 64 60 56 53 51 50 51 52 54 55 56 57
56 57 58 58 59 60 60 61 61 61 60 60 61 61 61 62 62 62 62 62 62 62 62 63 63 63 63 63 62 61 61 60 59 59 58 58 57 57 57 57 57 58 58 59 59 59 59 59 59 60 60 60 60 60 58 55 51 48 46 46 47 50 55 59 63 66 68 68 69 69 68 68 66 64 62 59 56 54 52 51 52 53 53 54 55 57
53 55 56 57 58 59 60 61 62 62 63 63 63 63 63 64 64 64 64 64 64 63 63 63 63 63 63 63 62 62 61 61 60 59 58 58 57 57 56 56 56 57 57 58 58 59 59 60 60 60 60 60 60 60 59 57 54 51 49 48 48 49 51 54 59 62 65 66 67 67 67 66 64 62 60 58 56 54 52 52 52 53 53 54 55 57
48 49 50 51 53 54 55 57 58 60 61 62 63 63 64 65 65 66 66 66 66 65 65 64 63 63 63 62 62 62 61 61 61 60 59 58 57 57 56 55 55 55 56 56 57 58 58 59 60 60 60 60 59 58 58 57 56 54 53 52 52 51 51 53 56 58 61 63 64 65 64 63 61 59 58 57 56 54 53 52 53 54 54 54 55 56
44 45 45 46 47 48 49 51 52 53 55 57 58 60 61 62 63 64 65 65 66 67 67 66 65 64 63 62 62 62 61 61 61 61 60 59 58 57 57 56 55 55 55 55 56 56 57 58 59 60 60 60 58 57 57 57 57 57 57 56 56 55 54 54 55 56 58 60 61 61 61 60 58 57 57 56 55 54 53 53 54 55 55 55 56 56
42 43 44 44 45 46 47 47 48 49 50 52 53 54 55 56 58 59 60 61 63 65 66 67 67 66 65 64 63 62 61 61 60 60 60 59 58 58 57 57 57 56 55 55 56 56 56 57 58 59 59 59 59 58 57 58 58 59 59 59 58 57 56 56 56 56 56 57 58 58 57 57 56 56 56 55 55 54 54 54 54 55 57 58 59 60
42 43 43 44 45 45 46 46 47 47 48 49 49 50 50 51 52 53 54 55 58 60 61 62 64 65 65 65 64 63 62 61 60 60 59 58 57 57 57 57 57 57 57 57 57 57 56 57 58 58 59 59 59 58 58 58 59 61 61 60 58 57 57 57 57 56 56 56 56 56 55 55 54 54 54 55 55 55 55 54 55 56 58 60 62 64
42 42 43 44 44 45 46 46 46 46 47 47 48 48 48 49 49 50 50 51 52 54 55 57 58 60 61 62 63 63 63 62 62 61 59 57 56 56 56 56 57 58 58 58 58 58 58 58 58 58 58 59 59 59 58 59 60 61 62 61 58 56 56 57 57 57 56 56 55 54 53 53 53 53 54 55 55 55 55 55 56 57 58 60 62 64
42 42 43 43 44 45 45 45 46 46 47 47 47 47 47 47 47 47 47 48 48 49 50 52 53 54 56 56 57 60 61 62 62 63 61 58 56 55 54 55 56 57 57 58 59 59 59 59 59 59 59 59 59 59 59 59 60 61 62 62 60 58 56 56 57 57 57 56 55 54 53 52 52 52 54 55 55 56 56 56 57 58 60 61 63 64
43 43 43 44 44 45 45 45 45 46 46 47 47 47 46 47 46 46 46 46 46 46 47 48 49 50 51 51 52 54 56 58 61 62 62 61 58 56 55 54 55 56 57 57 58 59 60 60 60 60 60 61 61 61 61 61 61 62 63 63 61 60 58 56 56 58 58 57 56 55 53 52 52 52 54 55 56 57 57 58 59 60 61 62 63 64
44 43 43 44 44 45 45 45 45 45 45 46 46 46 46 46 46 45 45 45 45 45 45 45 46 47 47 48 48 49 50 52 55 58 60 61 61 59 57 56 56 56 56 57 57 58 59 60 60 61 61 62 62 63 63 63 63 63 64 64 63 61 59 58 57 58 60 59 58 56 54 53 52 53 54 55 57 58 59 59 60 61 62 63 64 65
44 44 44 45 45 45 46 45 45 44 44 45 45 45 45 45 45 45 44 44 43 43 43 43 43 44 44 44 44 44 45 46 48 52 56 58 60 60 59 58 58 57 57 57 57 58 58 59 60 60 61 62 63 64 64 65 65 65 66 65 64 62 60 59 58 58 61 61 59 57 55 54 54 54 55 56 58 59 60 61 61 62 63 64 65 66
44 45 45 45 46 46 47 46 46 45 45 44 44 44 44 44 44 44 44 43 42 42 42 42 42 42 41 41 41 42 42 43 45 48 51 53 55 58 59 60 59 59 58 58 58 58 58 58 58 59 60 61 62 63 65 66 66 67 67 67 66 64 61 59 58 58 60 61 60 58 57 56 55 56 57 58 59 60 61 61 62 62 63 64 65 66
44 44 45 45 45 46 46 46 46 46 45 44 43 43 43 42 42 42 42 42 41 41 41 41 41 40 40 40 40 40 40 41 43 45 47 48 51 53 56 58 59 60 60 59 59 58 58 58 58 58 59 60 61 62 63 65 66 67 68 68 67 65 63 60 58 58 59 61 61 59 58 57 57 57 58 59 60 61 61 61 61 61 61 61 61 62
42 43 43 44 44 45 46 46 46 46 46 45 44 43 42 41 41 40 40 40 40 40 40 40 39 39 38 38 37 37 38 38 40 42 44 46 48 50 52 54 56 58 60 61 60 60 59 58 58 58 58 59 60 61 62 64 65 66 67 67 67 66 63 61 58 57 58 59 60 60 59 58 58 58 59 59 60 60 60 60 59 59 58 57 57 57
40 41 41 42 43 44 44 45 45 45 45 45 44 43 42 41 40 39 38 38 38 39 39 38 38 37 37 36 35 35 35 36 37 39 42 44 46 47 48 49 51 54 58 60 61 61 61 60 59 58 58 58 58 59 61 62 63 64 66 67 67 66 64 62 59 57 57 58 59 59 59 60 60 59 59 59 59 59 59 59 58 57 56 55 55 55
39 39 39 40 41 42 42 43 44 44 44 44 44 43 42 41 40 39 38 37 37 37 37 37 37 37 36 35 34 33 34 34 35 37 39 41 43 44 45 46 48 50 54 57 60 61 62 61 60 59 58 58 58 58 59 60 61 63 64 65 66 66 65 62 60 58 58 58 59 59 60 60 61 61 60 60 59 59 58 58 57 56 55 55 54 54
38 38 38 39 39 39 40 40 41 41 41 42 42 42 42 41 40 39 38 37 37 36 36 36 36 36 35 34 33 32 32 31 33 35 37 38 40 41 42 43 45 47 50 53 56 59 61 62 62 61 60 58 57 57 57 57 59 61 62 64 65 66 65 64 62 60 59 59 59 59 60 61 62 62 61 60 59 58 57 56 56 55 55 55 55 55
37 37 38 38 38 38 38 38 38 38 38 39 39 39 40 40 39 39 38 37 36 35 35 36 36 35 35 33 32 31 30 30 31 33 34 35 37 38 39 40 41 43 46 49 53 56 58 60 62 62 61 60 58 56 55 55 56 57 59 61 63 64 65 65 63 62 61 60 60 60 61 62 63 63 62 61 59 58 57 56 55 55 55 56 57 57
36 36 37 36 36 36 36 36 36 35 36 36 36 37 37 37 38 38 38 37 36 35 35 35 35 34 34 33 32 30 28 29 30 31 31 32 34 36 36 36 37 40 43 46 49 52 53 56 59 61 62 61 59 57 55 53 53 54 56 58 59 61 63 64 65 64 63 62 62 62 62 63 63 63 62 61 59 58 57 56 56 56 56 57 58 58
35 35 35 35 35 35 34 34 34 33 33 33 34 34 35 35 36 36 37 36 35 35 35 34 34 33 33 33 31 29 28 27 27 28 28 30 32 33 33 32 34 36 38 41 44 47 49 51 54 56 59 60 60 58 55 53 52 52 53 54 55 57 59 62 64 65 65 64 64 63 63 63 63 63 62 61 60 59 58 57 57 57 57 57 58 59
34 34 34 34 34 33 33 32 32 31 31 31 31 32 33 33 34 34 35 34 34 34 34 33 33 32 32 32 31 30 29 27 27 27 28 29 30 31 30 30 31 33 34 36 39 42 45 47 48 50 54 57 59 59 56 54 51 50 50 51 52 53 55 58 62 64 65 65 64 64 63 63 63 62 61 61 60 59 59 58 58 58 58 58 59 59
34 34 34 33 33 32 32 31 31 30 30 30 30 30 30 31 32 32 33 33 33 33 32 32 32 31 31 30 30 30 29 28 28 27 27 28 29 29 28 28 29 30 30 32 35 37 40 42 44 45 47 50 54 57 56 54 51 50 49 48 48 49 51 54 58 61 63 64 64 63 63 63 62 62 61 61 61 60 60 60 60 60 60 59 60 60
34 33 33 33 32 32 31 30 30 29 29 29 28 28 29 29 30 30 31 31 31 31 31 31 31 30 30 29 29 29 29 28 27 27 27 27 28 27 27 27 27 27 28 29 31 33 35 38 40 42 43 45 49 52 54 53 51 49 47 46 46 46 48 50 53 56 59 60 61 62 62 63 62 62 62 62 62 62 62 61 61 61 60 59 59 58
34 33 33 32 32 31 30 29 29 28 28 28 27 27 27 27 28 28 29 29 29 29 29 29 29 29 29 29 28 27 27 26 26 26 26 27 27 27 26 26 26 27 26 27 28 30 31 33 35 37 39 42 44 47 50 51 50 48 46 44 43 44 46 47 50 52 54 55 56 58 60 62 62 62 62 62 62 62 61 60 60 59 58 57 57 56
34 33 33 32 31 30 30 29 28 27 27 27 27 26 26 26 26 26 27 27 27 27 27 28 28 28 28 28 28 27 26 25 25 25 26 27 27 27 26 25 26 26 26 26 27 27 28 29 31 32 35 37 39 42 46 49 49 48 45 43 42 42 43 45 47 49 51 51 52 54 58 60 61 62 63 63 63 62 60 58 57 56 56 55 55 56
34 33 32 32 31 30 29 28 27 27 26 26 26 26 25 25 25 25 25 25 25 25 25 25 26 26 27 27 27 27 26 25 25 25 26 26 26 26 26 25 25 25 25 25 26 26 26 27 27 28 30 32 34 38 42 46 48 48 45 43 41 41 42 43 45 47 48 48 50 52 55 59 61 62 64 65 64 63 59 57 55 55 55 55 56 56
34 33 32 31 30 30 29 28 27 27 26 26 25 25 25 25 25 24 24 24 24 24 24 24 24 24 25 25 26 26 26 25 24 24 25 25 25 26 25 25 24 24 24 25 25 25 25 25 25 25 25 27 29 32 36 42 46 48 47 44 42 41 42 42 43 44 44 45 46 49 52 56 60 63 65 66 65 62 58 56 55 55 55 55 56 57
33 32 32 31 30 30 29 28 27 27 26 26 25 25 25 24 24 24 24 24 23 23 23 23 22 22 23 24 24 25 25 25 24 24 24 25 25 25 25 25 24 23 23 24 24 24 24 24 24 23 23 24 25 27 31 36 42 46 49 47 44 42 42 41 41 41 41 42 43 45 48 52 57 61 64 65 63 60 57 55 55 55 55 56 57 58
33 32 31 31 30 30 29 28 28 27 26 26 26 25 25 24 24 24 24 24 24 23 23 22 22 21 22 22 23 24 24 24 24 24 24 24 25 25 25 25 24 23 23 23 23 23 24 24 24 23 23 22 22 24 26 30 36 42 48 50 48 45 43 42 41 40 39 39 39 40 43 46 51 55 59 61 60 57 56 55 55 56 57 58 58 59
33 32 31 31 30 30 29 29 28 28 27 26 26 25 25 25 25 24 24 24 24 23 23 22 21 21 21 21 22 23 24 24 24 24 24 25 25 25 25 25 25 24 23 22 22 22 23 23 23 23 22 22 22 22 22 24 29 36 43 48 50 50 47 45 43 41 39 37 36 36 37 40 43 48 52 55 56 56 56 56 57 57 58 58 59 59
33 32 32 31 31 30 30 29 29 28 27 27 26 26 26 25 25 25 24 24 24 24 23 22 22 21 21 21 21 22 23 24 24 25 25 25 25 25 26 26 25 24 23 23 22 22 22 22 22 22 22 22 22 21 21 21 24 28 34 41 48 51 51 49 46 44 41 38 37 35 35 35 37 41 45 49 52 55 56 57 57 57 57 57 58 58
33 32 32 31 31 30 30 29 29 28 28 27 27 27 26 26 26 25 25 25 25 24 24 23 22 22 21 20 20 21 22 23 24 25 25 25 25 26 26 26 26 25 24 24 23 22 22 22 22 22 21 22 21 21 20 20 21 22 26 34 43 50 53 52 49 47 45 42 39 36 35 34 34 36 39 43 48 52 55 56 57 56 56 56 55 55
32 32 32 31 31 31 30 30 29 28 28 27 27 27 27 26 26 26 26 25 25 25 25 24 24 23 22 21 20 20 21 22 23 24 25 26 26 26 26 26 26 26 26 25 24 23 22 21 21 22 22 22 21 21 21 20 20 20 22 26 33 40 45 50 51 49 48 46 43 40 37 35 34 34 36 39 44 48 51 54 55 55 55 54 53 53
32 32 32 31 31 31 30 30 29 29 28 27 27 26 26 26 26 26 26 26 25 25 25 25 24 24 23 22 22 21 21 21 22 23 25 26 26 26 26 27 27 27 26 26 26 24 23 22 22 21 21 21 21 21 21 21 20 20 21 22 25 30 38 45 49 50 49 49 47 44 41 39 36 35 35 37 40 44 48 50 52 53 53 53 52 51
32 32 31 31 31 31 31 30 30 29 28 28 27 27 26 26 26 26 26 26 25 25 25 25 25 25 24 23 23 22 22 22 22 22 23 24 25 26 26 27 27 27 27 27 27 26 25 24 23 22 21 21 21 21 21 21 21 21 21 21 22 25 31 38 44 47 48 49 49 47 45 42 40 37 35 35 37 40 43 46 48 50 51 51 51 50
32 31 31 31 31 31 31 31 30 30 29 28 28 27 27 26 26 26 26 26 25 25 25 25 25 25 25 24 24 23 23 23 22 22 22 23 24 25 26 26 27 27 27 27 27 27 27 26 25 24 23 22 21 21 21 21 22 22 22 22 21 22 24 29 35 41 45 47 48 48 47 45 43 41 38 36 36 37 39 42 44 46 48 49 50 49
31 31 32 32 31 31 31 31 31 30 29 29 28 27 27 26 26 26 25 25 25 25 25 24 24 25 25 25 25 24 24 24 24 24 23 23 23 24 24 25 26 26 26 26 27 27 27 27 27 26 25 24 23 21 21 21 21 22 22 22 22 22 22 23 27 33 38 42 45 47 47 47 46 44 42 40 38 36 37 38 41 43 45 47 48 49
31 31 32 32 32 32 31 31 31 31 30 29 28 27 27 26 26 26 26 25 25 25 24 24 24 24 24 24 24 25 24 24 24 25 25 25 25 25 25 25 25 25 25 25 26 26 26 27 27 27 27 26 25 23 22 21 21 21 22 22 22 22 22 22 23 26 30 35 39 42 45 46 46 45 44 43 41 39 37 36 37 39 42 44 47 48
31 31 31 32 32 32 31 31 31 30 30 29 28 27 26 26 26 26 26 26 26 25 25 25 24 24 24 24 24 24 24 24 24 24 25 25 26 26 26 25 25 25 24 24 24 24 24 25 26 27 28 28 27 26 24 23 22 21 21 21 22 22 22 22 22 22 24 27 31 35 39 42 45 46 46 45 44 42 40 37 35 36 38 41 44 47
30 31 31 31 31 31 31 31 31 30 30 29 28 27 26 26 25 25 25 25 26 26 25 25 25 25 24 24 24 23 23 23 23 24 24 25 25 26 26 26 26 26 25 24 24 23 22 22 22 24 27 28 28 27 26 25 23 22 21 21 21 21 22 21 21 20 21 23 25 29 32 36 41 44 45 45 45 45 43 40 37 35 34 36 40 44
30 30 31 31 31 31 31 31 30 30 29 29 28 27 26 25 25 24 25 25 25 25 25 25 25 25 25 24 24 24 24 24 24 24 24 24 25 25 26 26 27 27 26 26 25 24 22 21 19 19 21 25 27 27 26 26 24 23 21 21 20 20 21 21 20 20 20 21 22 24 27 31 35 39 43 45 46 46 46 44 41 38 35 33 35 39
Wind_Direction
267 267 266 266 266 265 265 264 262 261 260 258 257 257 257 257 257 258 258 258 259 261 262 264 265 266 267 267 268 267 266 264 262 259 257 255 254 254 254 254 254 252 251 249 247 246 246 247 249 251 252 251 250 249 247 246 246 247 248 249 250 252 253 254 255 254 253 252 250 249 248 248 248 250 251 255 258 261 260 257 255 254 253 252 250 248
268 267 267 266 266 265 264 263 263 263 263 261 260 259 259 258 258 258 258 258 259 260 261 263 264 266 267 268 269 268 266 264 262 260 258 256 254 253 252 252 252 252 251 249 248 246 245 245 247 249 250 251 252 251 250 248 248 247 248 249 250 251 252 253 254 253 252 251 249 248 247 247 248 249 251 254 258 260 259 256 254 254 254 252 250 248
267 267 266 266 265 264 263 262 262 263 264 264 263 262 261 260 259 258 258 258 259 261 262 264 266 267 269 269 270 269 267 266 264 262 260 259 257 255 253 252 250 250 250 249 248 247 246 245 246 247 249 250 251 251 251 251 250 249 249 249 249 250 251 252 253 252 251 250 249 248 247 248 248 250 252 255 259 260 257 254 253 254 253 252 249 247
267 267 266 266 264 263 262 262 262 262 263 264 264 264 263 263 262 261 260 260 261 263 264 266 267 268 269 270 270 269 268 266 264 263 261 260 260 259 257 255 251 249 248 248 247 247 246 246 246 247 248 249 250 250 251 251 251 250 250 250 250 250 251 251 251 251 250 250 249 248 248 248 249 251 253 256 259 259 255 251 251 252 252 250 248 246
267 267 267 267 266 265 264 263 263 262 262 262 263 264 265 265 265 264 263 264 264 265 266 267 268 268 269 269 269 268 267 265 263 262 261 260 259 260 259 258 255 251 248 247 246 246 245 245 246 247 250 251 251 250 249 250 250 250 250 250 250 250 250 250 249 249 249 248 248 248 249 249 251 252 254 257 259 258 252 249 249 250 250 249 247 245
268 268 268 268 268 267 266 266 265 264 264 263 263 264 264 265 266 266 266 266 266 266 266 266 267 267 267 267 267 267 266 264 262 261 260 259 259 259 259 259 258 255 252 249 247 246 245 245 246 248 252 255 255 254 251 249 249 250 250 250 250 250 250 249 248 247 247 247 247 248 249 250 252 253 255 257 258 255 248 246 246 248 248 247 246 244
269 269 270 270 269 269 269 269 268 267 266 265 264 264 264 265 265 266 266 266 266 266 266 265 265 265 265 265 265 265 264 263 262 261 260 259 258 258 258 258 258 257 255 252 250 248 246 245 246 248 253 257 259 259 256 252 250 249 249 249 249 250 250 249 248 246 245 246 246 247 249 251 252 254 256 258 256 251 244 243 244 245 245 245 244 243
271 271 272 272 272 272 272 271 271 270 270 268 267 266 265 264 265 265 266 266 266 266 266 266 265 265 264 263 263 263 262 262 262 261 260 259 258 258 258 258 258 257 257 255 253 250 248 247 247 249 252 256 260 262 261 257 253 250 249 248 248 248 248 248 247 246 246 246 246 248 250 251 253 255 257 258 254 247 240 240 242 243 243 243 243 242
273 273 274 274 275 275 275 274 274 273 273 272 271 269 268 266 265 264 265 266 266 267 267 267 267 266 264 263 263 262 262 261 261 261 260 260 259 258 258 258 258 258 257 256 255 252 250 248 248 250 252 255 258 261 263 261 257 253 251 249 248 247 246 246 246 246 246 246 247 249 251 252 254 256 257 257 251 243 238 238 240 241 242 243 243 243
275 275 275 276 276 276 277 277 276 275 274 274 273 272 271 270 268 266 265 265 266 267 268 268 268 268 266 265 264 263 263 262 262 261 261 261 260 259 258 258 258 258 258 257 256 254 252 250 249 250 251 253 256 260 262 262 260 256 254 252 251 249 247 246 246 246 246 247 249 250 251 253 254 256 257 254 248 241 236 237 238 240 242 243 243 243
277 277 277 277 277 277 277 277 276 276 275 275 274 274 273 272 271 270 268 267 266 266 267 268 269 269 268 266 265 265 264 264 263 263 263 263 262 261 260 259 258 258 257 257 257 256 254 251 250 249 250 252 254 258 262 263 261 258 256 255 254 252 250 248 247 247 247 248 249 250 251 253 254 255 255 251 245 240 236 236 237 239 241 243 243 242
279 278 278 278 278 277 277 277 276 276 276 275 275 274 273 273 273 272 271 270 268 267 267 267 268 268 268 267 266 266 266 266 265 265 265 265 265 264 263 261 259 258 257 257 257 256 255 253 251 250 250 251 253 257 261 264 263 261 258 257 256 254 252 251 249 248 248 248 249 250 251 252 253 253 251 248 243 239 236 235 236 239 241 242 242 242
280 280 279 279 279 278 278 278 277 277 277 276 276 275 274 273 273 272 272 271 271 270 269 268 267 267 267 267 267 266 266 266 266 266 266 266 267 267 266 265 263 261 259 258 257 256 255 254 253 251 250 251 253 256 260 263 264 263 261 259 257 255 253 251 250 249 248 247 248 248 249 249 249 248 247 244 241 238 236 235 236 238 240 242 243 243
282 282 281 281 281 280 279 279 279 278 278 277 277 277 276 275 274 274 273 272 272 271 270 270 269 267 266 266 266 266 267 267 267 267 267 267 267 267 267 267 266 264 262 261 259 258 257 255 254 252 251 251 253 256 259 260 260 261 260 260 258 255 252 251 249 248 246 245 245 245 245 246 245 244 243 241 239 237 235 235 235 237 239 241 242 243
287 287 286 285 284 283 283 282 281 281 280 279 279 278 278 277 277 276 275 274 273 272 271 270 269 268 267 266 266 266 266 267 267 267 266 266 266 266 266 266 266 266 265 264 262 261 259 257 256 254 253 253 254 256 258 258 258 258 258 258 257 255 251 249 247 246 244 242 241 241 241 241 241 241 240 238 237 235 235 235 236 237 238 239 240 242
293 292 292 290 289 288 287 286 285 285 283 282 282 281 281 280 279 278 277 276 275 273 272 271 270 269 267 266 266 266 266 266 266 266 265 265 264 264 264 264 264 265 265 264 264 263 261 260 258 257 255 255 255 257 259 260 260 259 259 259 259 257 252 247 245 244 242 239 238 238 238 238 238 238 237 236 235 234 235 235 236 237 237 238 240 242
298 298 296 295 294 292 291 290 290 289 287 286 285 284 284 282 281 280 279 278 277 276 275 273 272 270 268 266 266 265 265 264 263 263 263 262 262 261 260 260 261 262 262 262 263 263 262 262 261 260 258 257 257 258 259 260 261 261 262 263 263 262 257 249 244 241 239 237 236 236 236 236 236 236 235 235 234 234 234 235 236 237 238 239 240 243
303 302 301 300 298 296 295 295 294 292 291 290 288 287 286 285 284 283 282 281 280 279 277 276 274 273 271 269 267 265 264 263 262 261 261 260 259 258 257 256 257 258 259 259 260 260 261 261 261 261 261 261 260 260 260 261 261 261 261 263 265 265 262 254 246 240 238 236 235 234 235 235 234 234 234 233 233 233 234 235 236 237 238 240 242 244
306 306 305 303 302 300 299 298 297 296 295 293 292 290 289 288 287 286 285 284 283 282 280 279 277 275 273 272 269 267 266 264 262 261 260 259 257 256 254 253 253 254 255 256 256 257 258 259 260 261 261 262 262 262 262 262 261 260 260 260 262 264 264 260 251 242 237 235 234 233 233 233 233 233 233 233 233 233 234 235 236 237 238 240 242 244
309 308 307 306 305 304 302 301 301 300 298 297 295 294 293 291 290 289 288 287 285 284 283 281 280 278 276 274 272 270 269 266 264 262 260 258 257 255 253 252 251 251 252 253 253 254 254 255 256 257 258 259 260 260 260 260 260 259 258 257 258 260 262 261 255 245 238 235 233 232 232 232 232 233 233 233 233 233 234 234 235 237 238 240 242 244
310 309 309 308 308 306 305 304 304 302 301 300 299 297 295 293 292 291 290 289 288 286 285 283 282 280 278 276 275 273 272 270 267 264 261 259 257 255 253 252 250 250 250 251 251 251 252 252 253 253 254 254 255 256 257 257 257 256 255 254 254 256 258 259 256 249 240 235 233 232 231 231 231 232 232 233 233 234 234 235 235 236 238 240 241 243
310 309 309 308 308 307 307 306 305 304 303 303 302 300 298 297 295 294 292 291 290 289 287 285 283 282 281 279 278 276 275 274 271 268 264 261 258 256 254 252 251 249 249 249 249 250 250 250 250 250 250 250 250 251 252 253 253 253 252 252 252 253 254 256 255 250 242 236 233 232 231 231 231 231 232 233 233 234 235 235 236 237 239 240 242 244
309 308 308 308 307 307 307 306 306 305 304 304 303 301 300 299 298 297 295 295 293 292 290 287 286 285 284 282 281 279 278 276 274 271 268 264 260 257 255 253 251 250 249 248 248 248 249 249 248 248 247 247 247 247 247 248 248 248 248 248 249 250 251 253 253 250 243 238 234 233 233 232 232 232 232 233 234 235 235 236 237 239 240 242 244 245
307 307 307 306 306 306 306 306 306 305 305 304 303 302 301 300 299 298 298 297 296 294 292 290 289 288 286 284 283 282 280 279 276 274 271 267 263 260 257 254 252 250 248 247 247 247 247 247 247 247 246 246 245 245 245 245 244 244 245 245 246 247 248 250 251 249 244 238 235 234 233 233 233 233 233 233 234 236 236 238 239 241 242 244 245 246
306 306 306 305 305 305 305 305 305 305 305 304 303 303 302 301 300 300 299 298 296 295 293 293 292 290 288 286 285 283 282 281 279 277 274 270 266 263 260 257 255 252 249 247 246 246 245 245 246 246 246 245 245 244 244 243 243 242 242 242 243 244 245 247 248 248 244 239 235 234 234 234 234 234 234 235 236 237 238 239 241 242 244 246 247 248
307 306 306 305 305 304 304 304 304 305 305 304 303 302 302 301 301 300 299 298 296 295 295 295 293 291 290 289 287 285 284 283 281 279 276 273 270 266 263 261 258 254 251 248 246 245 245 244 244 244 244 245 245 245 244 244 243 242 241 241 241 241 242 243 245 246 244 239 236 234 235 235 235 235 235 236 237 238 240 241 242 244 245 246 248 248
307 307 307 306 306 305 304 304 304 304 304 303 302 302 301 301 301 300 299 297 297 297 297 295 294 292 292 291 289 288 287 287 284 281 279 277 273 270 267 265 262 258 254 250 247 245 244 244 243 243 243 244 244 245 245 245 244 243 242 241 240 239 239 240 241 243 242 240 237 235 235 236 236 236 236 237 238 239 240 241 243 244 245 246 248 248
309 308 308 308 307 306 305 304 303 303 302 301 301 301 300 300 300 299 298 298 298 299 298 296 295 295 295 293 292 292 293 291 288 284 282 280 277 274 271 269 266 263 259 254 250 247 245 244 243 243 243 243 243 244 245 246 246 245 244 243 242 240 238 237 238 239 239 238 236 235 235 236 236 236 236 237 238 239 240 241 242 244 245 246 247 247
309 309 309 309 308 307 306 305 303 302 301 300 299 299 299 299 299 298 298 298 299 299 298 297 298 298 297 296 295 295 296 293 291 289 287 284 279 276 275 274 271 268 264 259 254 250 247 245 244 243 243 242 242 243 244 245 247 247 247 246 244 242 240 238 236 235 235 235 234 234 235 235 236 236 236 237 238 238 239 241 242 243 244 244 245 245
310 310 310 310 309 308 307 305 303 301 300 298 298 297 297 297 297 297 297 298 299 299 298 299 300 299 299 298 298 297 296 295 295 295 293 288 282 279 280 278 276 273 271 266 260 255 250 247 245 244 243 242 242 241 242 244 246 247 248 248 247 246 244 241 237 234 234 233 233 233 234 234 234 234 235 235 236 237 238 239 240 240 241 241 241 241
311 311 311 311 310 309 307 305 303 301 299 298 297 296 295 296 296 296 296 297 298 298 299 300 300 301 301 302 302 300 299 299 300 300 297 291 286 285 286 282 279 278 278 274 268 262 255 249 246 245 244 243 242 241 241 242 243 245 247 249 249 249 248 245 240 236 233 232 231 232 232 232 232 232 232 233 234 235 236 236 236 236 236 237 238 238
314 314 314 313 312 311 308 306 304 302 300 298 296 295 295 294 294 295 295 296 296 297 298 299 300 301 303 304 304 303 304 305 305 304 301 296 292 292 292 286 283 283 283 279 275 270 263 255 249 245 244 243 242 241 240 240 241 242 245 247 248 249 249 247 243 238 233 230 229 229 229 229 229 229 230 231 232 233 233 233 233 233 234 235 237 239
317 317 316 315 314 312 310 307 305 303 301 299 297 296 295 294 294 294 294 295 296 297 297 298 300 301 302 303 303 304 306 308 308 308 306 302 299 298 297 292 289 288 286 283 279 276 271 264 256 250 245 243 241 240 239 239 239 239 241 243 244 246 246 246 243 238 232 228 226 226 226 226 227 228 229 230 231 231 232 232 233 234 235 236 238 239
319 319 318 317 316 314 311 309 306 304 302 300 298 297 296 295 294 294 294 294 295 296 297 298 300 301 302 303 303 304 306 307 308 309 309 306 303 302 302 299 296 293 291 286 283 280 276 271 265 259 251 245 242 239 238 237 236 236 236 237 238 240 240 241 239 236 231 227 224 223 223 224 225 226 228 229 230 231 231 232 233 234 235 236 237 238
321 320 320 319 317 315 313 310 308 305 303 301 299 298 297 296 295 294 294 294 295 295 296 297 299 301 302 303 304 304 306 307 308 310 309 307 306 306 306 303 301 300 297 291 287 284 281 277 273 267 260 252 246 241 238 236 234 233 232 232 233 233 233 234 234 232 230 228 226 224 224 224 225 226 227 229 229 230 230 230 231 232 233 234 235 236
322 322 321 320 319 317 314 312 309 306 304 302 300 299 297 296 295 294 294 294 294 294 295 297 299 300 302 303 305 306 306 307 308 309 308 307 308 309 308 306 307 307 304 298 295 291 287 283 279 275 268 261 252 245 239 236 233 231 230 229 228 228 227 228 228 228 227 227 227 227 227 227 227 228 228 229 229 229 229 229 229 230 232 233 233 234
323 323 322 322 320 318 316 314 311 308 306 303 301 299 298 296 295 294 294 293 293 293 293 295 297 299 301 303 304 305 307 308 309 308 308 309 310 310 309 309 311 312 309 305 303 301 295 290 286 281 276 268 260 252 244 237 233 230 228 227 226 225 224 224 224 224 224 224 225 226 228 229 230 230 230 230 230 229 228 228 229 230 231 232 232 233
324 324 324 323 322 320 318 316 314 311 308 305 302 300 298 297 295 295 294 293 292 291 291 292 294 296 299 301 303 305 306 308 308 308 308 309 309 309 309 311 312 312 311 310 311 309 304 300 295 288 281 274 267 259 251 242 235 231 228 227 225 225 224 223 222 221 221 221 222 224 226 227 229 230 230 230 229 228 227 228 229 230 230 231 231 231
325 325 325 325 324 322 321 319 316 314 311 308 305 303 300 298 296 295 294 293 292 292 291 290 291 293 295 298 301 303 305 306 307 307 308 308 308 308 309 310 311 312 312 313 313 312 309 306 303 298 292 285 276 267 258 249 241 235 230 227 226 225 226 225 224 223 221 220 220 220 222 223 225 226 227 227 227 226 226 227 229 229 230 230 230 230
327 327 327 327 326 325 323 321 319 317 314 311 308 305 303 300 298 296 295 294 293 292 291 290 290 291 292 295 298 300 302 303 305 306 306 307 307 307 308 309 310 311 312 312 312 312 311 310 308 306 302 297 288 279 270 261 251 242 235 230 228 227 228 229 229 227 225 223 220 219 219 220 221 221 222 223 224 225 226 227 228 228 228 228 227 226
328 329 329 329 328 327 326 324 322 320 317 315 312 309 306 303 301 298 296 295 293 292 291 290 288 288 289 292 294 297 299 300 302 303 304 304 305 306 306 307 308 310 311 311 311 312 312 311 311 310 308 304 298 291 284 277 267 255 244 237 232 230 229 230 231 232 230 228 225 222 221 220 218 217 217 218 220 222 224 225 226 226 225 224 223 222
330 330 330 330 330 329 328 326 324 322 320 317 315 313 310 307 305 302 300 297 295 293 292 290 288 286 286 287 289 292 295 297 299 300 301 302 303 304 305 305 307 308 309 309 310 311 312 312 312 311 310 308 305 300 294 289 284 274 260 247 238 233 230 230 232 234 234 232 230 227 225 223 220 217 215 214 216 218 221 222 223 223 222 221 220 219
331 332 332 332 331 331 330 328 327 325 322 320 317 315 313 310 308 306 304 301 299 297 295 292 290 288 285 284 284 286 290 293 295 297 299 300 301 302 302 303 304 306 307 307 308 309 311 311 311 311 311 311 309 305 301 298 295 289 278 264 250 241 236 234 233 234 235 235 234 232 230 228 225 222 218 215 214 215 217 219 220 220 220 219 218 218
333 333 333 333 333 332 332 331 329 328 326 324 321 318 315 313 311 309 307 305 303 301 298 296 294 291 288 286 284 283 285 287 290 293 296 297 299 299 300 301 302 303 304 305 306 308 309 309 309 309 311 312 311 308 305 302 299 295 291 283 268 253 244 239 236 235 236 236 236 235 234 232 230 227 223 218 214 213 214 215 217 218 218 218 218 217
334 334 335 335 335 334 333 333 332 330 329 327 325 322 319 316 314 312 310 308 306 304 302 300 298 295 293 289 286 283 282 283 286 289 292 294 296 297 298 299 300 301 302 303 304 306 307 307 307 308 309 309 308 307 306 304 301 298 296 294 285 269 254 245 240 238 238 238 238 237 236 235 234 232 228 222 216 213 212 212 214 215 216 217 217 217
336 336 337 337 336 336 335 334 333 333 332 330 328 325 322 319 317 315 313 311 309 307 305 303 302 300 298 294 290 286 283 282 283 284 286 288 291 293 294 296 297 298 299 300 301 303 304 305 306 307 307 306 305 305 305 304 302 299 297 297 294 286 274 260 250 245 242 241 240 239 238 237 236 235 233 228 222 216 212 211 211 212 214 215 216 216
337 338 338 338 337 337 336 335 334 334 333 332 330 328 326 323 321 318 316 314 312 310 308 306 304 303 301 299 296 293 289 286 284 283 283 284 286 287 289 291 293 294 296 297 298 300 301 303 304 305 305 304 304 304 303 303 301 299 297 297 296 294 287 276 264 255 248 245 243 241 240 239 238 237 236 233 228 222 216 211 210 210 211 213 214 215
339 339 339 339 338 338 337 336 335 335 334 333 332 330 328 326 324 322 320 317 315 313 311 309 307 305 303 302 300 298 295 292 289 286 285 284 284 285 285 286 288 290 291 293 295 297 299 300 302 303 303 303 303 303 302 301 299 297 297 296 296 294 290 286 279 270 260 253 249 245 243 242 241 240 238 236 233 229 223 216 212 210 210 211 212 213
340 340 340 339 339 338 338 337 336 335 334 334 333 332 330 329 327 325 323 321 319 317 315 312 310 308 306 304 302 300 298 296 294 291 289 287 286 285 284 284 284 285 286 287 289 292 295 297 299 300 301 301 302 302 301 300 299 297 296 295 294 292 291 291 289 283 274 264 257 252 249 246 243 241 239 238 236 233 229 224 218 213 210 209 209 210
340 340 340 339 339 339 339 338 337 336 335 334 334 333 331 330 329 327 325 323 321 319 318 316 313 311 308 306 304 302 301 299 298 296 294 291 289 287 286 285 284 283 283 283 283 285 287 290 293 296 298 298 299 300 300 300 299 298 296 294 292 291 290 290 289 287 281 274 266 260 255 252 248 245 242 240 238 236 233 229 225 220 215 211 208 207
339 339 339 339 339 339 339 338 338 337 336 335 335 334 332 331 329 327 326 324 322 321 320 318 316 314 312 309 307 306 304 303 302 300 298 296 294 292 290 288 287 285 284 283 282 281 281 281 282 285 289 294 296 298 300 299 299 297 295 292 291 290 289 288 287 284 281 277 271 266 261 258 254 250 247 243 241 238 235 233 230 227 223 217 210 205
Height
3030 3030 3030 3030 3030 3030 3030 3030 3030 3030 3029 3029 3030 3030 3030 3031 3031 3031 3030 3030 3030 3030 3031 3031 3031 3032 3032 3033 3034 3035 3036 3036 3036 3036 3036 3037 3037 3037 3037 3038 3038 3038 3038 3038 3039 3040 3040 3041 3042 3043 3043 3044 3045 3046 3046 3047 3047 3048 3049 3050 3051 3052 3054 3055 3056 3057 3058 3060 3061 3061 3062 3062 3063 3063 3064 3064 3066 3067 3069 3070 3071 3072 3073 3074 3075 3076
3025 3025 3025 3026 3026 3026 3025 3025 3026 3025 3024 3024 3025 3026 3026 3027 3027 3027 3027 3026 3026 3026 3026 3026 3026 3027 3027 3028 3029 3030 3031 3031 3031 3031 3031 3031 3032 3032 3033 3033 3033 3033 3034 3034 3034 3035 3036 3036 3037 3038 3039 3040 3041 3041 3042 3042 3043 3044 3045 3046 3047 3048 3050 3051 3052 3053 3054 3055 3056 3057 3058 3058 3059 3059 3060 3061 3062 3064 3065 3066 3068 3069 3070 3071 3072 3073
3021 3021 3020 3021 3021 3021 3020 3020 3021 3021 3020 3019 3020 3021 3022 3022 3022 3022 3022 3022 3022 3021 3021 3021 3021 3021 3022 3023 3024 3025 3025 3026 3027 3027 3027 3028 3028 3028 3028 3028 3029 3029 3030 3030 3031 3031 3031 3032 3033 3034 3035 3036 3036 3037 3038 3038 3039 3040 3040 3041 3042 3044 3045 3046 3047 3049 3050 3051 3052 3052 3053 3054 3055 3055 3056 3057 3059 3060 3062 3063 3065 3066 3067 3068 3069 3070
3017 3016 3016 3016 3016 3016 3015 3015 3015 3015 3015 3015 3015 3016 3017 3017 3017 3017 3017 3017 3017 3016 3017 3017 3017 3017 3017 3017 3018 3019 3020 3021 3022 3023 3024 3024 3024 3024 3024 3024 3025 3025 3025 3026 3026 3027 3028 3028 3029 3030 3031 3031 3032 3032 3033 3034 3034 3035 3036 3037 3038 3039 3040 3041 3043 3044 3045 3046 3047 3048 3049 3050 3050 3051 3052 3053 3055 3057 3059 3060 3061 3063 3064 3065 3066 3067
3013 3012 3011 3011 3011 3011 3010 3010 3010 3009 3010 3010 3011 3011 3011 3011 3011 3011 3011 3011 3011 3011 3011 3012 3012 3012 3012 3012 3013 3014 3015 3015 3016 3017 3018 3019 3019 3020 3020 3020 3020 3021 3021 3021 3022 3023 3023 3024 3025 3026 3026 3027 3027 3028 3028 3029 3030 3030 3031 3032 3033 3034 3035 3036 3038 3039 3041 3042 3043 3044 3045 3045 3046 3046 3047 3049 3051 3053 3055 3056 3058 3059 3060 3061 3062 3063
3009 3008 3007 3007 3006 3006 3005 3005 3005 3004 3004 3005 3006 3006 3006 3005 3005 3005 3005 3006 3006 3006 3006 3007 3007 3007 3007 3007 3007 3008 3008 3009 3010 3011 3012 3013 3014 3014 3015 3015 3016 3016 3016 3017 3017 3018 3019 3020 3020 3021 3021 3022 3022 3023 3024 3025 3025 3026 3026 3027 3028 3029 3030 3031 3033 3034 3035 3037 3038 3039 3040 3041 3041 3042 3043 3045 3047 3050 3051 3052 3054 3056 3056 3057 3058 3059
3005 3004 3003 3002 3002 3001 3001 3000 3000 2999 2999 3000 3000 3000 3000 2999 2999 3000 3000 3000 3000 3000 3001 3001 3002 3002 3002 3002 3002 3002 3003 3003 3004 3005 3006 3007 3008 3009 3010 3010 3011 3011 3012 3012 3013 3014 3014 3015 3015 3016 3016 3017 3017 3018 3019 3020 3021 3021 3022 3022 3023 3024 3025 3026 3027 3029 3030 3031 3033 3034 3035 3036 3036 3037 3038 3040 3043 3045 3047 3048 3050 3051 3052 3053 3054 3055
3000 3000 2999 2998 2997 2996 2996 2996 2995 2994 2994 2994 2994 2993 2994 2994 2994 2994 2994 2994 2994 2994 2994 2995 2996 2996 2997 2997 2997 2997 2997 2997 2998 2999 3000 3001 3002 3003 3004 3005 3005 3006 3007 3008 3008 3009 3010 3010 3011 3011 3012 3012 3012 3013 3014 3016 3016 3017 3017 3018 3018 3019 3020 3021 3022 3024 3025 3026 3027 3028 3030 3031 3031 3032 3034 3036 3038 3040 3042 3044 3046 3047 3048 3049 3050 3051
2996 2995 2994 2994 2993 2992 2991 2991 2990 2990 2990 2989 2988 2987 2987 2988 2988 2989 2990 2989 2989 2989 2989 2989 2990 2991 2991 2992 2992 2991 2991 2992 2992 2993 2994 2995 2996 2997 2998 2999 3000 3000 3001 3002 3003 3004 3005 3006 3007 3007 3008 3008 3008 3009 3009 3011 3012 3012 3013 3014 3014 3014 3015 3016 3017 3018 3020 3021 3022 3023 3024 3026 3026 3028 3029 3031 3033 3035 3037 3039 3041 3042 3043 3044 3045 3046
2991 2991 2990 2989 2988 2987 2986 2985 2985 2985 2985 2984 2983 2982 2982 2981 2982 2983 2984 2985 2985 2984 2984 2983 2983 2984 2985 2986 2986 2986 2986 2986 2987 2987 2988 2989 2990 2991 2992 2993 2994 2995 2996 2997 2998 2999 3000 3001 3002 3003 3004 3004 3004 3005 3006 3006 3007 3007 3008 3010 3010 3010 3011 3011 3012 3013 3015 3016 3017 3018 3019 3021 3022 3023 3025 3026 3028 3030 3032 3034 3036 3038 3040 3041 3041 3042
2987 2986 2986 2985 2984 2983 2982 2981 2980 2980 2980 2979 2978 2977 2977 2976 2976 2976 2977 2978 2979 2979 2980 2979 2978 2978 2978 2980 2980 2981 2980 2981 2981 2982 2983 2983 2984 2985 2986 2987 2988 2989 2990 2991 2992 2994 2995 2996 2996 2998 2999 3000 3000 3001 3001 3002 3002 3003 3003 3005 3006 3006 3007 3007 3007 3008 3010 3011 3012 3014 3015 3016 3017 3019 3021 3022 3024 3025 3027 3030 3031 3033 3036 3036 3037 3038
2983 2982 2981 2981 2980 2978 2978 2977 2976 2975 2974 2973 2973 2972 2972 2972 2971 2971 2971 2971 2971 2973 2974 2974 2974 2974 2973 2973 2973 2974 2975 2975 2975 2976 2977 2978 2978 2979 2980 2981 2982 2984 2985 2986 2987 2988 2989 2990 2991 2992 2993 2995 2996 2996 2997 2997 2998 2998 2999 3000 3001 3002 3003 3003 3003 3004 3005 3006 3008 3009 3011 3012 3013 3015 3016 3018 3019 3021 3023 3025 3027 3029 3031 3032 3033 3033
2980 2979 2977 2976 2976 2974 2973 2972 2971 2970 2969 2968 2968 2967 2967 2967 2966 2966 2965 2965 2965 2966 2966 2967 2968 2969 2969 2968 2967 2968 2968 2969 2970 2971 2972 2973 2973 2973 2974 2975 2976 2977 2979 2980 2981 2982 2983 2984 2985 2987 2988 2989 2991 2991 2992 2993 2993 2994 2995 2995 2996 2997 2998 2999 2999 3000 3001 3002 3003 3005 3006 3008 3010 3011 3012 3014 3015 3017 3018 3020 3022 3025 3026 3028 3029 3029
2976 2975 2974 2973 2972 2971 2969 2968 2967 2966 2965 2964 2963 2963 2962 2961 2961 2961 2960 2960 2960 2960 2960 2961 2961 2963 2964 2964 2963 2962 2962 2963 2964 2965 2966 2967 2968 2968 2968 2969 2970 2971 2973 2974 2975 2976 2977 2978 2980 2981 2982 2983 2985 2986 2987 2988 2989 2990 2990 2991 2992 2992 2993 2994 2995 2995 2996 2998 2999 3001 3002 3004 3005 3006 3008 3009 3011 3013 3014 3016 3018 3020 3022 3024 3026 3026
2972 2971 2970 2969 2968 2966 2965 2964 2963 2962 2961 2960 2959 2958 2957 2956 2956 2956 2955 2955 2954 2954 2954 2954 2955 2956 2958 2958 2957 2957 2957 2957 2958 2959 2961 2962 2963 2963 2963 2963 2964 2966 2967 2968 2969 2970 2971 2972 2973 2975 2976 2977 2978 2980 2981 2981 2983 2984 2985 2986 2987 2987 2988 2989 2990 2991 2991 2993 2995 2996 2998 2999 3001 3002 3003 3005 3007 3009 3011 3012 3014 3016 3018 3020 3021 3022
2968 2967 2966 2965 2963 2962 2961 2960 2959 2957 2956 2956 2955 2954 2953 2952 2951 2951 2950 2949 2948 2948 2948 2948 2948 2950 2951 2952 2952 2952 2952 2951 2952 2953 2954 2956 2958 2959 2958 2958 2959 2960 2961 2962 2963 2964 2965 2966 2967 2968 2970 2972 2973 2974 2975 2975 2976 2976 2977 2979 2981 2982 2982 2983 2984 2986 2987 2988 2990 2991 2993 2994 2996 2997 2999 3001 3003 3005 3006 3008 3010 3011 3013 3015 3016 3016
2964 2963 2962 2960 2959 2958 2956 2956 2955 2953 2952 2951 2950 2949 2948 2947 2946 2946 2946 2944 2944 2943 2943 2942 2942 2943 2944 2946 2947 2947 2946 2945 2946 2946 2949 2950 2952 2954 2954 2953 2953 2954 2956 2957 2957 2958 2959 2960 2961 2962 2964 2966 2967 2968 2969 2970 2971 2971 2972 2973 2974 2976 2977 2978 2979 2980 2982 2983 2985 2986 2988 2990 2991 2993 2995 2997 2999 3001 3002 3004 3006 3007 3009 3010 3011 3012
2961 2959 2958 2956 2955 2954 2952 2951 2950 2949 2947 2946 2945 2945 2944 2943 2942 2941 2941 2940 2939 2939 2938 2938 2937 2937 2937 2939 2941 2941 2940 2940 2940 2940 2943 2945 2946 2948 2949 2949 2948 2949 2950 2952 2952 2953 2954 2955 2956 2957 2958 2960 2961 2962 2963 2964 2965 2966 2967 2967 2968 2970 2972 2973 2974 2975 2976 2978 2980 2981 2983 2985 2986 2989 2991 2992 2994 2996 2998 3000 3001 3003 3005 3006 3007 3008
2957 2956 2954 2952 2951 2950 2948 2947 2946 2944 2943 2942 2941 2940 2940 2939 2938 2938 2937 2936 2936 2935 2934 2933 2933 2933 2933 2934 2934 2934 2934 2935 2934 2934 2936 2938 2941 2942 2944 2944 2943 2943 2945 2946 2947 2948 2949 2950 2951 2952 2953 2954 2955 2956 2957 2958 2959 2960 2961 2962 2963 2965 2966 2968 2970 2971 2972 2973 2975 2976 2978 2980 2982 2984 2986 2988 2990 2991 2993 2995 2997 2999 3001 3002 3003 3004
2953 2952 2951 2949 2947 2945 2944 2943 2942 2941 2939 2937 2936 2936 2935 2934 2934 2934 2933 2932 2931 2931 2930 2929 2929 2928 2928 2929 2929 2928 2928 2928 2928 2928 2930 2932 2934 2936 2938 2938 2938 2938 2940 2941 2942 2943 2944 2945 2946 2947 2948 2949 2950 2950 2951 2952 2953 2954 2955 2957 2958 2960 2961 2963 2965 2966 2967 2969 2970 2971 2973 2975 2977 2979 2981 2983 2985 2987 2989 2991 2992 2994 2996 2998 2999 3000
2950 2948 2947 2945 2943 2941 2940 2939 2938 2937 2935 2934 2933 2932 2931 2930 2930 2929 2928 2928 2927 2927 2926 2926 2925 2924 2924 2924 2924 2924 2923 2923 2923 2922 2923 2925 2927 2929 2931 2931 2932 2933 2934 2936 2937 2938 2939 2940 2941 2943 2944 2944 2944 2945 2945 2946 2947 2948 2950 2951 2953 2954 2956 2958 2959 2961 2962 2963 2965 2966 2968 2970 2972 2975 2976 2979 2981 2982 2984 2986 2988 2990 2991 2993 2995 2996
2947 2945 2943 2942 2941 2938 2936 2935 2934 2933 2931 2931 2930 2928 2926 2926 2926 2925 2924 2924 2923 2923 2922 2922 2921 2920 2920 2921 2920 2919 2919 2919 2918 2916 2916 2919 2921 2922 2924 2925 2926 2927 2929 2931 2932 2933 2934 2936 2936 2938 2939 2939 2939 2940 2940 2941 2942 2943 2944 2946 2947 2949 2951 2952 2954 2955 2956 2958 2960 2962 2963 2965 2967 2970 2972 2974 2976 2978 2980 2981 2983 2985 2987 2989 2991 2992
2945 2943 2941 2940 2938 2936 2934 2932 2931 2929 2928 2927 2926 2925 2923 2923 2922 2921 2920 2920 2919 2918 2918 2917 2917 2917 2917 2917 2916 2916 2915 2914 2912 2911 2912 2913 2914 2916 2917 2919 2920 2921 2923 2925 2926 2928 2930 2931 2932 2933 2934 2934 2935 2935 2936 2936 2937 2938 2939 2941 2942 2943 2945 2947 2949 2950 2952 2953 2955 2957 2959 2961 2963 2965 2967 2969 2971 2973 2975 2977 2979 2981 2982 2984 2986 2987
2943 2941 2939 2937 2936 2934 2931 2930 2928 2926 2925 2924 2923 2921 2921 2920 2919 2918 2917 2916 2916 2915 2913 2913 2914 2914 2914 2913 2913 2912 2912 2910 2908 2907 2907 2908 2908 2909 2911 2913 2914 2915 2916 2919 2921 2923 2924 2926 2927 2928 2929 2929 2930 2931 2931 2932 2933 2934 2935 2936 2937 2938 2940 2941 2944 2946 2947 2949 2951 2953 2955 2957 2959 2961 2962 2965 2966 2968 2970 2972 2974 2976 2977 2979 2981 2982
2941 2939 2937 2936 2934 2931 2930 2928 2926 2924 2922 2921 2919 2918 2917 2917 2916 2916 2915 2914 2912 2911 2910 2910 2910 2910 2910 2910 2910 2910 2908 2906 2905 2903 2903 2903 2903 2904 2906 2907 2908 2909 2910 2912 2915 2916 2917 2920 2922 2923 2924 2925 2925 2926 2927 2928 2928 2929 2930 2931 2932 2933 2935 2936 2938 2940 2942 2944 2946 2948 2951 2953 2955 2956 2958 2960 2962 2964 2966 2967 2969 2971 2972 2974 2976 2978
2938 2937 2935 2933 2932 2930 2928 2926 2924 2922 2920 2918 2916 2915 2914 2913 2913 2913 2912 2911 2910 2908 2908 2907 2907 2906 2906 2906 2907 2906 2905 2904 2902 2901 2899 2898 2898 2899 2901 2901 2902 2902 2903 2906 2908 2910 2911 2913 2916 2918 2919 2920 2920 2921 2922 2923 2924 2925 2925 2926 2927 2929 2930 2931 2933 2935 2937 2939 2941 2944 2946 2948 2950 2952 2953 2955 2957 2959 2961 2963 2965 2967 2969 2970 2972 2974
2936 2935 2933 2931 2930 2928 2926 2924 2922 2920 2918 2916 2914 2912 2911 2911 2910 2910 2909 2908 2907 2906 2906 2905 2903 2903 2903 2904 2904 2903 2902 2901 2899 2898 2896 2895 2895 2895 2896 2896 2897 2897 2897 2900 2902 2904 2906 2907 2910 2913 2914 2915 2916 2917 2918 2919 2919 2920 2921 2921 2923 2924 2925 2927 2929 2931 2933 2935 2937 2939 2941 2943 2945 2947 2949 2951 2953 2955 2957 2959 2961 2963 2965 2966 2968 2969
2934 2932 2931 2929 2927 2926 2924 2922 2921 2918 2916 2914 2912 2911 2909 2908 2908 2907 2905 2904 2904 2904 2903 2901 2901 2900 2900 2900 2900 2900 2899 2898 2896 2894 2892 2892 2892 2891 2891 2892 2892 2892 2892 2894 2896 2898 2900 2902 2904 2906 2908 2910 2911 2913 2914 2914 2915 2916 2916 2917 2918 2919 2921 2922 2924 2926 2928 2930 2932 2934 2936 2938 2940 2942 2944 2946 2948 2950 2952 2955 2957 2959 2961 2962 2963 2964
2932 2930 2928 2926 2925 2923 2922 2920 2918 2916 2915 2913 2911 2909 2907 2906 2906 2904 2902 2902 2902 2902 2900 2899 2898 2898 2897 2896 2897 2897 2897 2896 2893 2891 2890 2890 2890 2888 2888 2889 2889 2888 2887 2888 2889 2892 2896 2897 2899 2901 2903 2904 2906 2908 2909 2910 2911 2911 2912 2913 2914 2915 2916 2917 2919 2920 2922 2925 2927 2929 2931 2933 2935 2937 2939 2941 2944 2946 2948 2950 2953 2955 2956 2958 2959 2960
2930 2928 2926 2924 2923 2921 2919 2918 2916 2915 2913 2911 2909 2907 2906 2905 2904 2902 2901 2900 2900 2899 2897 2896 2896 2896 2894 2894 2894 2894 2894 2893 2891 2889 2888 2888 2887 2885 2886 2887 2886 2884 2884 2884 2884 2886 2890 2892 2894 2896 2897 2899 2901 2903 2904 2906 2906 2907 2907 2908 2910 2911 2912 2914 2914 2915 2917 2919 2921 2924 2926 2929 2931 2933 2935 2937 2939 2941 2944 2946 2948 2951 2952 2953 2955 2956
2928 2926 2924 2922 2921 2919 2917 2916 2914 2912 2911 2909 2908 2906 2904 2903 2902 2901 2899 2898 2897 2896 2896 2895 2894 2893 2892 2892 2891 2891 2890 2890 2888 2887 2886 2886 2884 2883 2883 2884 2883 2881 2881 2881 2881 2881 2882 2886 2889 2891 2891 2893 2895 2897 2899 2901 2902 2903 2903 2904 2906 2907 2908 2910 2910 2911 2911 2913 2916 2918 2921 2924 2926 2928 2931 2933 2935 2937 2940 2942 2944 2946 2948 2949 2950 2951
2925 2924 2922 2920 2918 2916 2915 2913 2912 2910 2909 2907 2906 2904 2903 2901 2900 2899 2898 2896 2896 2895 2894 2893 2892 2891 2891 2890 2889 2888 2887 2887 2886 2885 2884 2883 2881 2881 2881 2882 2880 2879 2880 2879 2878 2877 2877 2879 2882 2885 2886 2888 2890 2891 2894 2896 2897 2898 2899 2900 2901 2903 2904 2906 2906 2907 2907 2908 2910 2913 2916 2918 2921 2923 2926 2928 2931 2933 2935 2937 2939 2941 2942 2944 2945 2946
2923 2921 2919 2918 2916 2914 2913 2911 2910 2908 2907 2905 2904 2903 2901 2900 2899 2897 2896 2895 2894 2893 2892 2891 2890 2890 2889 2889 2888 2887 2886 2885 2884 2883 2882 2881 2880 2879 2879 2879 2878 2877 2877 2876 2876 2875 2875 2875 2876 2879 2881 2883 2885 2886 2889 2891 2892 2894 2895 2896 2897 2898 2900 2901 2903 2903 2903 2903 2905 2907 2910 2912 2915 2918 2921 2923 2926 2928 2930 2932 2934 2936 2937 2939 2940 2942
2920 2919 2917 2916 2914 2912 2911 2909 2908 2906 2905 2903 2902 2901 2900 2899 2897 2896 2895 2894 2892 2891 2891 2890 2889 2888 2887 2886 2886 2886 2885 2884 2882 2881 2881 2880 2878 2877 2877 2877 2876 2875 2874 2874 2873 2873 2873 2872 2873 2874 2876 2878 2880 2882 2884 2886 2887 2889 2890 2891 2892 2894 2896 2897 2899 2900 2900 2899 2900 2901 2903 2906 2909 2912 2915 2918 2920 2923 2925 2927 2929 2931 2933 2935 2936 2938
2918 2916 2915 2913 2912 2910 2909 2907 2906 2904 2903 2901 2900 2899 2898 2897 2896 2895 2894 2892 2891 2890 2889 2888 2887 2886 2885 2885 2884 2883 2883 2882 2881 2880 2879 2878 2876 2876 2875 2875 2874 2873 2872 2872 2871 2871 2871 2870 2871 2871 2872 2873 2876 2878 2879 2881 2882 2884 2886 2887 2888 2890 2891 2892 2894 2895 2896 2896 2896 2897 2898 2900 2903 2906 2909 2912 2915 2917 2919 2921 2924 2926 2928 2931 2932 2934
2916 2914 2913 2911 2910 2908 2906 2905 2904 2902 2901 2900 2899 2897 2896 2895 2894 2893 2892 2891 2890 2889 2888 2887 2886 2885 2884 2883 2882 2881 2881 2881 2880 2879 2878 2876 2876 2875 2874 2873 2872 2871 2871 2870 2869 2868 2868 2867 2868 2868 2869 2870 2871 2873 2874 2876 2878 2880 2882 2883 2884 2885 2887 2888 2889 2891 2891 2892 2893 2894 2894 2896 2898 2901 2904 2906 2909 2911 2913 2916 2918 2921 2924 2926 2928 2930
2914 2912 2911 2909 2908 2906 2904 2903 2902 2901 2899 2898 2897 2896 2895 2893 2892 2891 2891 2890 2889 2888 2887 2886 2885 2884 2883 2881 2881 2880 2879 2878 2878 2877 2876 2875 2875 2874 2872 2871 2871 2871 2870 2868 2867 2866 2866 2865 2865 2866 2866 2867 2867 2868 2870 2871 2873 2876 2877 2879 2880 2881 2882 2884 2885 2886 2887 2888 2889 2890 2891 2893 2895 2896 2899 2901 2903 2905 2908 2911 2913 2916 2919 2921 2923 2926
2912 2911 2909 2907 2906 2904 2902 2901 2900 2898 2897 2896 2895 2894 2893 2891 2891 2890 2889 2888 2887 2886 2886 2885 2884 2883 2882 2881 2879 2878 2877 2877 2876 2876 2875 2874 2873 2872 2871 2870 2870 2869 2868 2867 2866 2865 2864 2863 2862 2862 2863 2863 2864 2865 2865 2866 2869 2871 2872 2874 2876 2877 2879 2879 2880 2881 2882 2883 2884 2886 2887 2889 2890 2891 2893 2895 2897 2900 2903 2906 2909 2911 2914 2916 2919 2921
2910 2909 2907 2906 2904 2902 2901 2899 2898 2896 2895 2894 2893 2891 2891 2890 2889 2888 2887 2886 2885 2885 2884 2883 2883 2882 2881 2880 2879 2877 2876 2875 2875 2874 2873 2872 2871 2871 2870 2869 2868 2868 2867 2866 2865 2864 2863 2861 2861 2860 2860 2860 2861 2861 2862 2863 2864 2866 2867 2869 2871 2873 2875 2875 2876 2877 2878 2879 2880 2881 2882 2884 2885 2887 2888 2890 2893 2896 2899 2902 2905 2907 2910 2912 2914 2916
2909 2907 2906 2904 2902 2901 2899 2897 2896 2895 2893 2892 2891 2890 2889 2888 2887 2886 2885 2884 2883 2882 2882 2881 2881 2880 2880 2879 2878 2876 2875 2874 2873 2872 2871 2871 2870 2869 2868 2867 2867 2866 2866 2865 2864 2863 2862 2861 2860 2859 2859 2858 2858 2858 2859 2860 2861 2861 2862 2865 2866 2868 2870 2871 2872 2873 2874 2875 2876 2877 2878 2880 2881 2883 2884 2886 2889 2892 2894 2897 2900 2903 2905 2907 2910 2911
2907 2906 2904 2902 2901 2899 2898 2896 2894 2893 2891 2890 2889 2888 2886 2886 2885 2884 2883 2882 2881 2881 2880 2880 2879 2879 2878 2878 2877 2876 2874 2873 2872 2871 2870 2869 2868 2868 2867 2866 2866 2865 2864 2864 2863 2862 2861 2860 2859 2858 2857 2857 2856 2856 2857 2858 2857 2858 2859 2860 2861 2862 2864 2866 2868 2869 2870 2871 2872 2874 2875 2876 2878 2879 2881 2883 2885 2888 2890 2892 2895 2898 2900 2903 2905 2907
2906 2904 2902 2901 2899 2898 2896 2894 2893 2891 2890 2888 2887 2886 2885 2883 2882 2881 2881 2880 2879 2879 2878 2878 2877 2877 2877 2876 2876 2875 2873 2872 2871 2870 2869 2868 2867 2866 2866 2865 2864 2863 2863 2862 2861 2861 2860 2859 2858 2857 2856 2856 2855 2855 2855 2855 2855 2856 2856 2856 2856 2857 2860 2862 2864 2865 2866 2867 2869 2870 2872 2873 2875 2876 2876 2878 2880 2882 2885 2888 2890 2892 2895 2897 2900 2902
2904 2903 2901 2899 2898 2896 2895 2893 2891 2890 2889 2887 2886 2884 2883 2881 2880 2879 2878 2877 2877 2876 2876 2875 2875 2874 2874 2874 2874 2874 2873 2871 2870 2869 2867 2866 2866 2865 2864 2863 2862 2862 2861 2860 2860 2859 2859 2858 2857 2856 2855 2855 2854 2853 2853 2853 2853 2854 2853 2853 2853 2855 2857 2858 2858 2860 2862 2864 2865 2867 2868 2870 2871 2872 2873 2874 2875 2877 2880 2883 2885 2888 2890 2892 2895 2897
2903 2901 2900 2898 2897 2895 2893 2892 2890 2889 2887 2886 2884 2883 2881 2880 2879 2877 2876 2876 2875 2874 2873 2873 2872 2872 2872 2872 2872 2871 2871 2871 2869 2868 2866 2865 2864 2863 2862 2862 2861 2860 2860 2859 2858 2858 2857 2857 2856 2856 2855 2854 2853 2852 2852 2851 2851 2851 2851 2851 2851 2853 2853 2853 2854 2856 2859 2860 2861 2863 2865 2866 2868 2869 2870 2871 2872 2874 2876 2878 2881 2883 2886 2888 2890 2892
2902 2901 2899 2897 2896 2894 2892 2891 2889 2887 2886 2885 2883 2881 2880 2878 2877 2876 2875 2874 2873 2872 2871 2870 2870 2869 2869 2869 2869 2869 2869 2869 2868 2867 2866 2864 2863 2862 2861 2860 2859 2859 2858 2857 2856 2856 2855 2855 2855 2854 2854 2853 2852 2851 2851 2850 2850 2849 2849 2849 2849 2850 2850 2850 2852 2854 2855 2856 2857 2859 2861 2862 2864 2866 2867 2868 2869 2871 2873 2875 2877 2880 2882 2884 2886 2889
2901 2900 2898 2896 2895 2893 2891 2890 2888 2886 2885 2884 2882 2880 2879 2877 2876 2875 2873 2872 2871 2870 2869 2868 2867 2867 2866 2866 2866 2866 2866 2866 2866 2865 2865 2863 2862 2861 2860 2859 2858 2857 2856 2856 2855 2854 2854 2853 2852 2852 2852 2852 2851 2851 2850 2849 2848 2848 2848 2847 2847 2848 2848 2849 2850 2850 2850 2851 2853 2855 2856 2858 2861 2862 2864 2865 2866 2868 2870 2871 2874 2876 2878 2880 2882 2885
2900 2898 2897 2895 2893 2892 2890 2888 2887 2886 2884 2883 2881 2879 2878 2876 2875 2873 2872 2871 2870 2868 2867 2866 2866 2865 2864 2864 2863 2863 2863 2863 2863 2862 2862 2862 2861 2860 2859 2858 2857 2856 2855 2854 2854 2853 2852 2851 2851 2850 2850 2850 2849 2849 2849 2848 2848 2847 2846 2846 2846 2846 2846 2846 2847 2847 2847 2849 2851 2852 2853 2855 2857 2859 2860 2862 2864 2866 2867 2869 2870 2872 2875 2877 2879 2881
2899 2897 2896 2894 2892 2891 2889 2887 2886 2884 2883 2881 2880 2879 2877 2875 2873 2872 2871 2869 2868 2867 2866 2865 2864 2863 2863 2862 2861 2861 2860 2860 2860 2859 2859 2859 2858 2858 2857 2856 2856 2855 2854 2853 2852 2852 2851 2850 2849 2848 2847 2847 2847 2847 2847 2847 2847 2846 2845 2845 2845 2844 2844 2844 2845 2845 2846 2847 2848 2849 2851 2852 2853 2855 2856 2858 2861 2862 2864 2866 2867 2869 2871 2873 2875 2878
2898 2896 2895 2893 2891 2890 2888 2886 2885 2883 2882 2880 2879 2877 2876 2874 2873 2871 2870 2868 2867 2866 2865 2864 2863 2862 2861 2860 2860 2859 2858 2858 2857 2857 2856 2856 2855 2855 2855 2854 2854 2853 2853 2852 2851 2851 2850 2849 2848 2846 2846 2845 2845 2845 2845 2845 2845 2845 2844 2844 2843 2843 2842 2842 2843 2843 2844 2845 2845 2846 2848 2849 2850 2851 2853 2855 2857 2859 2861 2862 2864 2866 2868 2870 2871 2874
2898 2896 2894 2892 2891 2889 2887 2886 2884 2882 2881 2879 2878 2876 2875 2873 2872 2870 2869 2867 2866 2865 2863 2862 2861 2860 2859 2859 2858 2857 2856 2856 2855 2855 2854 2854 2853 2852 2852 2851 2851 2851 2850 2850 2850 2850 2850 2849 2848 2846 2844 2843 2842 2842 2843 2843 2843 2843 2843 2842 2842 2841 2841 2841 2841 2841 2842 2842 2843 2844 2845 2846 2847 2848 2850 2851 2853 2855 2857 2859 2861 2863 2865 2866 2868 2870
2897 2895 2893 2891 2890 2888 2886 2885 2883 2881 2880 2878 2876 2875 2874 2872 2871 2869 2868 2866 2865 2864 2862 2861 2860 2859 2858 2857 2856 2856 2855 2854 2853 2853 2852 2851 2851 2850 2849 2849 2848 2848 2847 2847 2847 2848 2848 2848 2848 2847 2845 2842 2841 2841 2841 2841 2841 2841 2841 2841 2841 2840 2840 2839 2839 2840 2840 2840 2841 2841 2842 2843 2844 2846 2846 2848 2849 2851 2854 2856 2858 2860 2862 2863 2865 2866